Wind_Speed
19 19 19 20 21 22 23 23 23 23 23 23 24 25 25 25 25 25 25 24 25 25 25 25 24 24 24 24 25 26 26 27 28 28 29 30 30 31
18 19 20 20 21 21 22 22 22 22 23 23 24 24 25 25 25 24 24 23 24 24 24 25 25 25 25 25 25 27 27 27 28 29 29 30 30 31
19 19 20 21 21 21 21 21 22 22 23 23 23 23 24 24 24 23 23 23 24 24 24 25 25 25 26 26 26 27 27 28 29 29 31 32 32 32
19 19 20 20 20 20 20 20 21 21 22 22 22 22 22 22 23 23 23 24 24 25 25 25 26 27 27 27 27 27 28 28 29 30 31 32 32 32
18 19 19 20 20 20 19 19 20 20 21 22 22 21 22 22 22 22 23 24 25 26 26 26 26 27 27 27 27 28 29 29 29 30 30 31 31 32
18 18 18 19 18 19 19 19 19 20 20 21 22 22 22 21 22 23 24 24 25 25 25 26 26 26 27 27 27 28 29 29 29 29 30 30 31 32
17 17 17 18 18 18 19 19 19 19 20 21 21 21 21 22 22 23 24 24 24 25 25 25 25 26 26 27 27 28 28 28 29 29 30 31 32 32
16 16 16 16 17 17 17 18 18 18 18 19 20 20 21 21 22 23 23 24 24 25 25 25 25 26 27 27 27 28 28 29 29 29 29 29 30 30
13 14 14 15 15 16 16 16 17 17 17 17 19 20 20 21 21 22 22 23 23 24 24 24 25 26 27 27 27 28 28 28 29 29 29 29 29 30
12 12 13 13 14 14 15 15 16 16 17 17 18 19 20 21 21 21 21 21 22 22 23 24 24 25 25 25 26 27 27 27 28 28 29 29 29 29
12 12 12 13 13 13 13 13 14 15 15 16 16 17 18 19 20 20 21 21 22 22 22 23 23 24 25 26 26 26 26 27 27 28 28 28 29 29
12 12 12 12 12 13 13 13 14 14 15 15 16 17 17 18 19 19 20 20 21 22 22 22 23 24 24 25 25 26 27 27 27 27 28 28 28 28
12 12 12 11 11 12 13 13 13 14 14 16 17 17 18 18 19 19 20 21 22 22 22 22 23 23 23 24 25 25 26 26 26 27 27 28 29 29
11 12 12 12 13 13 13 14 15 15 15 16 17 18 19 19 19 20 20 21 21 21 21 21 22 22 23 24 24 25 25 25 26 27 28 29 30 30
12 12 13 13 13 14 15 15 16 16 17 17 18 19 19 19 19 19 19 20 20 21 21 21 22 23 23 24 25 26 26 26 26 27 29 30 30 31
13 13 14 14 15 16 16 16 16 17 17 18 18 19 20 20 20 20 20 20 21 21 21 22 23 23 24 25 26 27 27 27 28 29 30 30 31 31
15 15 15 15 16 16 17 17 17 17 18 19 20 20 20 20 20 21 21 21 22 22 22 23 23 24 25 26 27 28 29 29 30 30 30 30 31 31
15 16 16 17 17 17 17 18 18 18 19 19 20 20 20 20 20 21 22 22 22 23 23 24 24 25 27 27 28 29 29 29 29 29 29 30 30 31
16 17 17 18 18 18 18 19 19 19 20 20 20 20 19 19 20 21 21 21 22 23 24 25 26 27 27 28 28 28 28 28 28 29 29 30 31 31
18 18 18 19 19 19 19 19 20 20 20 20 20 20 20 20 21 21 21 22 22 23 24 25 26 26 26 27 27 28 28 28 28 28 29 30 30 30
20 20 20 21 21 20 20 20 21 21 20 20 20 20 21 21 21 21 22 22 23 23 24 24 25 25 26 26 27 27 28 28 28 28 28 29 29 28
21 21 21 22 22 22 21 21 21 20 20 20 21 21 21 21 21 22 22 23 23 24 25 25 25 26 26 27 27 27 27 27 27 27 27 27 27 27
21 21 21 21 21 21 21 21 21 21 21 21 21 21 21 22 22 22 23 24 25 25 26 25 26 26 27 27 27 27 26 26 26 26 26 27 27 27
Wind_Direction
260 259 259 260 261 262 263 265 266 266 266 266 268 268 268 267 267 268 269 269 270 272 272 271 272 274 275 273 271 270 270 270 270 271 270 270 270 270
260 260 260 261 262 262 265 267 267 267 267 268 271 271 269 268 268 268 270 272 272 273 272 271 272 274 274 273 272 272 274 274 273 274 273 273 272 271
260 262 263 263 263 263 265 267 268 268 268 270 272 270 268 267 268 268 270 272 273 274 273 271 271 273 273 273 272 273 275 277 278 277 276 275 273 271
261 263 264 263 264 266 267 269 270 269 269 271 271 270 267 265 267 268 269 272 274 275 274 273 272 273 274 274 274 274 276 278 279 278 277 276 275 273
262 262 264 265 266 268 270 270 270 269 269 270 269 269 268 266 267 269 271 274 276 277 276 276 275 274 274 276 277 277 278 279 280 280 278 276 275 273
262 262 264 266 267 269 270 270 270 270 270 270 269 268 269 269 268 269 272 275 278 278 278 277 275 274 276 277 278 279 281 281 281 280 279 277 275 275
263 263 263 263 265 267 268 269 271 270 271 271 270 269 270 270 271 272 275 277 279 279 279 279 278 277 278 279 279 281 282 282 282 281 281 280 278 275
265 265 262 262 263 266 268 271 273 272 273 273 271 271 272 272 273 275 276 278 279 279 278 278 277 277 279 280 281 282 283 283 284 284 284 283 281 279
268 264 264 263 264 265 267 271 275 274 274 276 276 275 274 274 276 276 278 279 280 280 280 281 282 281 281 283 283 285 286 286 285 285 285 284 283 281
265 265 264 264 265 267 268 273 274 275 277 278 279 279 279 279 279 280 281 284 284 283 283 283 284 283 283 283 284 286 286 286 284 283 284 285 285 283
264 265 265 266 269 273 273 275 277 279 280 282 282 283 285 286 286 284 284 285 286 287 286 285 285 284 284 285 286 287 289 288 287 286 286 288 288 286
268 268 270 272 275 277 279 280 280 281 282 283 284 286 288 289 288 287 286 287 286 287 288 287 287 286 286 287 287 289 291 291 290 288 288 288 289 289
273 274 276 280 284 282 282 281 281 283 284 284 284 285 288 290 290 289 288 288 288 289 290 290 290 290 291 291 291 290 291 292 291 290 290 290 290 290
274 274 277 279 282 284 285 286 288 290 290 288 287 288 290 291 290 290 289 288 289 291 293 293 293 293 293 294 292 291 293 294 294 293 292 292 292 292
271 272 275 279 283 284 286 289 290 291 290 290 289 288 290 290 290 290 290 291 292 293 294 295 296 296 295 296 295 293 293 293 294 295 294 293 293 293
267 272 275 278 282 286 288 292 293 294 292 292 294 293 292 293 291 290 290 290 292 292 294 297 298 299 299 298 297 296 296 295 295 296 296 295 295 294
267 271 277 280 283 286 288 291 292 294 296 296 295 293 292 291 290 289 290 291 291 292 293 295 297 298 298 298 297 297 297 297 296 295 295 296 297 297
269 273 277 281 284 287 289 291 292 293 296 298 297 294 294 295 294 294 294 292 291 293 294 295 296 297 298 297 297 298 298 297 296 295 295 296 298 297
269 273 277 281 283 286 289 291 293 294 295 296 298 297 296 296 296 295 296 294 293 294 295 296 297 298 299 297 297 299 300 299 298 298 297 297 298 297
270 273 277 281 284 286 288 291 294 294 293 294 295 296 296 295 295 296 296 295 295 297 298 298 300 301 301 300 299 300 301 301 300 300 300 299 299 298
270 274 278 281 283 286 288 290 292 293 292 291 293 295 297 296 295 296 296 296 297 298 299 300 302 303 303 303 302 302 301 301 302 302 302 301 301 300
273 274 277 280 281 284 286 287 290 291 290 291 293 294 295 296 296 296 296 298 298 298 299 300 301 302 304 304 304 304 304 303 303 304 303 302 301 301
274 276 278 280 282 283 285 286 288 289 290 291 292 294 294 295 295 296 296 297 297 297 298 298 299 300 303 304 304 304 304 303 303 303 304 303 303 303
Height
5807 5808 5808 5809 5809 5810 5810 5810 5811 5811 5811 5811 5812 5811 5812 5812 5812 5813 5813 5813 5813 5813 5813 5813 5813 5812 5812 5811 5811 5810 5810 5810 5809 5809 5808 5808 5807 5807
5801 5802 5802 5803 5804 5804 5804 5805 5805 5805 5805 5805 5805 5805 5805 5806 5806 5806 5806 5807 5807 5807 5806 5806 5806 5806 5805 5805 5804 5803 5803 5802 5802 5801 5800 5799 5799 5798
5796 5796 5796 5797 5798 5798 5799 5799 5799 5799 5799 5799 5799 5799 5800 5800 5800 5800 5800 5800 5800 5800 5800 5800 5799 5799 5798 5797 5797 5796 5795 5795 5794 5792 5791 5790 5790 5789
5790 5791 5791 5791 5792 5792 5793 5793 5793 5793 5794 5794 5793 5793 5793 5793 5794 5794 5794 5794 5794 5793 5793 5793 5792 5792 5791 5790 5789 5788 5787 5786 5785 5784 5782 5781 5780 5779
5785 5785 5785 5786 5786 5787 5787 5787 5788 5788 5788 5788 5787 5787 5787 5788 5788 5788 5788 5788 5787 5787 5786 5786 5785 5784 5783 5783 5781 5780 5779 5778 5777 5775 5773 5772 5771 5770
5779 5779 5780 5780 5781 5781 5782 5782 5782 5782 5782 5782 5782 5782 5782 5782 5782 5782 5782 5782 5781 5780 5779 5778 5777 5777 5776 5775 5774 5773 5771 5770 5768 5766 5764 5763 5762 5761
5774 5774 5774 5775 5775 5776 5776 5777 5777 5777 5776 5776 5776 5776 5776 5776 5776 5776 5775 5775 5774 5773 5772 5771 5770 5769 5768 5767 5766 5765 5763 5761 5760 5758 5756 5754 5753 5751
5769 5768 5768 5769 5770 5771 5771 5772 5772 5772 5771 5771 5771 5771 5770 5770 5770 5769 5769 5768 5768 5767 5765 5764 5763 5762 5760 5759 5758 5757 5755 5753 5751 5749 5747 5745 5744 5742
5765 5764 5764 5765 5765 5766 5767 5767 5767 5767 5767 5766 5766 5765 5765 5765 5764 5763 5762 5761 5760 5759 5758 5757 5756 5754 5753 5752 5750 5749 5747 5745 5743 5741 5739 5737 5735 5733
5762 5761 5761 5761 5762 5762 5763 5763 5763 5763 5762 5761 5761 5760 5760 5759 5758 5757 5755 5755 5754 5752 5751 5750 5749 5747 5746 5744 5743 5741 5739 5737 5735 5733 5731 5729 5727 5725
5758 5758 5758 5758 5759 5759 5759 5759 5759 5758 5758 5757 5756 5756 5755 5753 5752 5751 5750 5749 5748 5747 5745 5744 5742 5740 5739 5737 5735 5733 5731 5729 5727 5725 5723 5721 5719 5717
5755 5755 5755 5755 5755 5755 5755 5755 5754 5754 5753 5753 5752 5751 5750 5748 5747 5745 5744 5744 5742 5741 5739 5737 5735 5733 5732 5730 5728 5726 5723 5721 5719 5717 5715 5713 5711 5708
5752 5752 5752 5752 5752 5752 5752 5751 5751 5750 5749 5748 5747 5746 5745 5743 5742 5740 5739 5738 5736 5735 5733 5730 5728 5726 5724 5723 5721 5718 5716 5714 5711 5709 5707 5705 5702 5700
5749 5749 5749 5749 5749 5749 5748 5748 5747 5746 5745 5743 5743 5741 5740 5738 5737 5735 5734 5732 5731 5729 5727 5725 5722 5720 5718 5716 5714 5712 5709 5706 5703 5701 5699 5696 5694 5691
5746 5746 5746 5746 5745 5745 5744 5743 5742 5742 5741 5739 5738 5737 5735 5733 5732 5730 5729 5727 5725 5723 5721 5719 5716 5714 5712 5709 5707 5704 5702 5699 5696 5693 5690 5687 5685 5682
5743 5742 5742 5742 5742 5741 5740 5739 5738 5737 5736 5734 5733 5731 5730 5728 5726 5725 5723 5721 5720 5718 5715 5713 5710 5708 5705 5703 5700 5697 5693 5690 5688 5685 5681 5678 5675 5672
5739 5739 5738 5738 5737 5736 5736 5734 5733 5732 5730 5729 5728 5726 5724 5722 5720 5719 5717 5715 5713 5711 5709 5706 5703 5701 5698 5695 5692 5689 5686 5682 5679 5676 5673 5670 5667 5664
5734 5734 5734 5733 5733 5732 5731 5730 5728 5727 5725 5724 5722 5720 5718 5716 5714 5712 5710 5708 5706 5704 5702 5699 5697 5694 5691 5688 5685 5681 5678 5674 5671 5668 5665 5662 5659 5655
5730 5730 5729 5729 5728 5727 5726 5724 5723 5721 5720 5718 5716 5714 5712 5710 5708 5706 5704 5702 5700 5697 5695 5692 5689 5686 5684 5681 5677 5673 5670 5666 5663 5660 5656 5653 5650 5647
5725 5725 5724 5723 5722 5721 5720 5719 5717 5715 5714 5712 5710 5708 5706 5704 5702 5700 5698 5695 5693 5691 5688 5685 5682 5678 5675 5672 5669 5665 5662 5658 5655 5652 5648 5645 5642 5638
5719 5719 5718 5717 5716 5715 5714 5713 5711 5709 5707 5706 5704 5702 5700 5698 5695 5693 5691 5689 5686 5684 5681 5678 5675 5671 5668 5665 5661 5658 5654 5651 5647 5644 5640 5637 5634 5630
5713 5713 5712 5711 5710 5709 5707 5706 5704 5703 5701 5700 5698 5696 5693 5691 5689 5687 5685 5682 5680 5677 5674 5671 5668 5664 5661 5657 5654 5650 5647 5643 5640 5636 5632 5629 5626 5622
5707 5706 5705 5704 5703 5702 5701 5699 5698 5696 5695 5693 5691 5689 5687 5685 5683 5680 5678 5676 5673 5670 5667 5664 5661 5657 5654 5650 5646 5643 5639 5636 5632 5629 5626 5622 5618 5615